Terminal Aerodrome Forecast
Issued by NWS

Home | Current Version | Previous Version | Graphics & Text | Print | Product List | Glossary On
Versions: 1 2 3 4 5 6 7 8 9 10 11 12 13 14 15 16 17
000
FTUS43 KABR 270500
TAFATY
TAF
KATY 270540Z 2706/2806 30009KT P6SM SKC
     FM271200 31011KT P6SM BKN020
     FM271500 34017G27KT P6SM BKN040
     FM280200 35007KT P6SM SKC=

USA.gov is the U.S. government's official web portal to all federal, state and local government web resources and services.